GW1765 Weather Reports


time (UTC)temp
F
wind
direction
speed
knots
gust
knots
rain 1hr
in
rain 24hr
in
rain mn
in
humidity
%
barometer
mb
20260507082135 63 339 19.1 28.7 0.00 0.00 0.00 83 1019.1
20260507081111 63 355 16.5 25.2 0.00 0.00 0.00 83 1019.1
20260507080110 63 0 18.2 26.9 0.00 0.00 0.00 83 1019.3
20260507075106 63 339 18.2 28.7 0.00 0.00 0.00 83 1019.4
20260507074101 63 1 17.4 24.3 0.00 0.00 0.00 83 1019.4
20260507073057 63 1 20.9 29.5 0.00 0.00 0.00 82 1019.4
20260507072056 63 351 18.2 25.2 0.00 0.00 0.00 81 1019.3
20260507071050 63 351 19.1 26.9 0.00 0.00 0.00 81 1019.3
20260507070047 63 353 17.4 26.1 0.00 0.00 0.00 80 1019.2
20260507065103 63 6 18.2 28.7 0.00 0.00 0.00 80 1019.0
20260507064040 63 16 18.2 29.5 0.00 0.00 0.00 80 1018.9
20260507063036 63 359 18.2 27.8 0.00 0.00 0.00 80 1019.0
20260507062055 63 350 18.2 29.5 0.00 0.00 0.00 81 1018.9
20260507061031 63 354 17.4 25.2 0.00 0.00 0.00 82 1018.9
20260507060026 63 7 18.2 25.2 0.00 0.00 0.00 82 1018.9
20260507055025 63 355 17.4 25.2 0.00 0.00 0.00 82 1018.9
20260507054019 63 337 20.9 29.5 0.00 0.00 0.00 81 1018.9
20260507053015 63 351 17.4 26.9 0.00 0.00 0.00 82 1019.0
20260507052112 63 349 16.5 23.5 0.00 0.00 0.00 82 1019.1
20260507051110 63 348 17.4 26.1 0.00 0.00 0.00 81 1019.1
20260507050107 63 345 14.8 20.9 0.00 0.00 0.00 81 1019.3
20260507045124 63 346 18.2 26.1 0.00 0.00 0.00 80 1019.2
20260507044058 63 360 18.2 27.8 0.00 0.00 0.00 80 1019.2
20260507043054 63 341 17.4 26.1 0.00 0.00 0.00 78 1019.3
20260507042051 63 5 18.2 26.1 0.00 0.00 0.00 76 1019.4
20260507041047 63 352 20.0 29.5 0.00 0.00 0.00 73 1019.5
20260507040044 63 0 18.2 26.1 0.00 0.00 0.00 73 1019.6
20260507035102 64 357 19.1 26.9 0.00 0.00 0.00 71 1019.6
20260507034037 63 356 17.4 26.1 0.00 0.00 0.00 73 1019.9
20260507033033 63 356 17.4 27.8 0.00 0.00 0.00 73 1020.0
20260507032031 64 3 18.2 30.4 0.00 0.00 0.00 71 1019.9
20260507031028 64 354 18.2 30.4 0.00 0.00 0.00 70 1020.0
20260507030043 64 345 17.4 26.1 0.00 0.00 0.00 70 1020.1
20260507025020 64 1 18.2 25.2 0.00 0.00 0.00 69 1020.3
20260507024017 64 351 16.5 26.1 0.00 0.00 0.00 69 1020.5
20260507023134 63 356 20.0 31.3 0.00 0.00 0.00 70 1020.7
20260507022111 63 347 18.2 29.5 0.00 0.00 0.00 71 1020.9
20260507021106 63 356 19.1 25.2 0.00 0.00 0.00 71 1021.0
20260507015059 63 354 17.4 31.3 0.00 0.00 0.00 71 1021.3
20260507014055 63 349 16.5 25.2 0.00 0.00 0.00 73 1021.4
20260507013112 63 353 18.2 26.1 0.00 0.00 0.00 73 1021.4
20260507012048 63 341 17.4 25.2 0.00 0.00 0.00 74 1021.4
20260507011046 63 356 18.2 29.5 0.00 0.00 0.00 72 1021.5
20260507005037 64 354 20.9 29.5 0.00 0.00 0.00 71 1022.1
20260507004033 64 9 19.1 26.9 0.00 0.00 0.00 71 1022.1
20260507003031 63 4 18.2 32.2 0.00 0.00 0.00 73 1022.4
20260507002026 63 359 18.2 25.2 0.00 0.00 0.00 72 1022.6
20260507001024 64 345 18.2 28.7 0.00 0.00 0.00 71 1022.5
20260507000019 64 348 18.2 29.5 0.00 0.00 0.00 71 1022.5
20260506235101 64 357 18.2 28.7 0.00 0.00 0.00 71 1022.5
20260506234114 64 347 17.4 27.8 0.00 0.00 0.00 73 1022.6
20260506233109 63 359 16.5 25.2 0.00 0.00 0.00 74 1022.6
20260506232106 63 343 18.2 26.1 0.00 0.00 0.00 76 1022.7
20260506231103 63 358 16.5 24.3 0.00 0.00 0.00 77 1022.7
20260506230058 63 354 18.2 28.7 0.00 0.00 0.00 78 1022.7
20260506225115 63 345 15.6 29.5 0.00 0.00 0.00 79 1022.9
20260506224052 62 4 17.4 24.3 0.00 0.00 0.00 80 1023.0
20260506223110 63 8 16.5 24.3 0.00 0.00 0.00 81 1023.1
20260506222046 62 356 15.6 22.6 0.00 0.00 0.00 82 1023.3
20260506221042 62 356 17.4 24.3 0.00 0.00 0.00 83 1023.3
20260506220038 62 0 15.6 25.2 0.00 0.00 0.00 84 1023.4
20260506215034 62 347 15.6 20.9 0.00 0.00 0.00 85 1023.4
20260506214032 62 5 17.4 26.1 0.00 0.00 0.00 85 1023.4
20260506213027 61 13 15.6 26.1 0.00 0.00 0.00 86 1023.6
20260506212025 61 5 15.6 23.5 0.00 0.00 0.00 87 1023.7
20260506211022 61 359 14.8 22.6 0.00 0.00 0.00 88 1023.8
20260506210016 61 17 14.8 24.3 0.00 0.00 0.00 89 1023.8
20260506205134 61 0 12.2 18.2 0.00 0.00 0.00 90 1023.9
20260506204110 61 6 13.9 20.0 0.00 0.00 0.00 91 1023.9
20260506203108 61 354 14.8 23.5 0.00 0.00 0.00 91 1024.0
20260506202103 61 344 13.9 18.2 0.00 0.00 0.00 91 1024.0
20260506201059 60 9 13.9 20.9 0.00 0.00 0.00 91 1024.0
20260506200057 60 360 14.8 20.0 0.00 0.00 0.00 92 1023.9
20260506195054 60 353 15.6 20.9 0.00 0.00 0.00 92 1023.9
20260506194049 60 1 13.9 18.2 0.00 0.00 0.00 92 1023.8
20260506193045 60 343 14.8 19.1 0.00 0.00 0.00 92 1023.8
20260506192044 60 356 13.9 20.9 0.00 0.00 0.00 92 1023.9
20260506191038 60 343 13.9 21.7 0.00 0.00 0.00 91 1023.9
20260506190035 60 359 13.0 20.0 0.00 0.00 0.00 90 1023.9
20260506185033 60 343 13.9 20.9 0.00 0.00 0.00 89 1024.0
20260506184048 60 351 14.8 20.0 0.00 0.00 0.00 88 1024.1
20260506183025 60 18 13.9 22.6 0.00 0.00 0.00 88 1024.1
20260506182041 60 312 13.9 18.2 0.00 0.00 0.00 88 1024.2
20260506181018 60 347 13.0 20.0 0.00 0.00 0.00 87 1024.3
20260506180117 60 8 13.0 18.2 0.00 0.00 0.00 87 1024.2
20260506175111 60 9 13.9 18.2 0.00 0.00 0.00 86 1024.2
20260506174110 60 348 13.9 20.0 0.00 0.00 0.00 86 1024.3
20260506173105 60 356 14.8 20.0 0.00 0.00 0.00 85 1024.4
20260506172100 60 8 16.5 24.3 0.00 0.00 0.00 86 1024.4
20260506171119 60 355 15.6 26.1 0.00 0.00 0.00 87 1024.4
20260506170053 60 355 13.0 22.6 0.00 0.00 0.00 88 1024.3
20260506165049 60 353 13.9 20.0 0.00 0.00 0.00 88 1024.2
20260506164047 60 351 13.0 18.2 0.00 0.00 0.00 87 1024.3
20260506163042 60 7 11.3 17.4 0.00 0.00 0.00 86 1024.4
20260506162039 60 342 12.2 19.1 0.00 0.00 0.00 86 1024.5
20260506161035 60 360 12.2 20.0 0.00 0.00 0.00 85 1024.8
20260506160034 61 16 13.0 20.0 0.00 0.00 0.00 86 1025.0
20260506155028 60 8 13.0 19.1 0.00 0.00 0.00 86 1025.1
20260506154106 60 3 12.2 18.2 0.00 0.00 0.00 86 1025.2
20260506153023 60 354 13.0 20.9 0.00 0.00 0.00 87 1025.3
20260506152018 60 350 13.0 21.7 0.00 0.00 0.00 88 1025.5
20260506151116 60 3 12.2 20.0 0.00 0.00 0.00 87 1025.6
20260506150111 60 353 11.3 15.6 0.00 0.00 0.00 86 1025.7
20260506145109 60 353 12.2 20.0 0.00 0.00 0.00 85 1026.0
20260506144124 61 8 12.2 19.1 0.00 0.00 0.00 85 1026.1
20260506143101 61 14 13.9 23.5 0.00 0.00 0.00 84 1026.2
20260506142059 61 353 13.0 20.0 0.00 0.00 0.00 84 1026.2
20260506141116 61 346 13.0 18.2 0.00 0.00 0.00 84 1026.4
20260506140050 61 356 12.2 23.5 0.00 0.00 0.00 84 1026.4
20260506135046 61 17 14.8 20.9 0.00 0.00 0.00 84 1026.4
20260506134043 61 357 12.2 19.1 0.00 0.00 0.00 85 1026.4
20260506133100 61 14 13.9 22.6 0.00 0.00 0.00 86 1026.4
20260506132057 61 12 13.0 20.0 0.00 0.00 0.00 86 1026.4
20260506131031 61 356 13.0 20.0 0.00 0.00 0.00 86 1026.5
20260506130028 61 347 10.4 18.2 0.00 0.00 0.00 87 1026.4
20260506125024 61 9 13.9 20.9 0.00 0.00 0.00 87 1026.6
20260506124021 61 346 9.6 15.6 0.00 0.00 0.00 87 1026.7
20260506123017 61 342 12.2 18.2 0.00 0.00 0.00 87 1026.7
20260506122116 61 340 11.3 14.8 0.00 0.00 0.00 87 1026.7
20260506121111 61 359 13.0 20.0 0.00 0.00 0.00 86 1026.8
20260506120109 61 5 11.3 16.5 0.00 0.00 0.00 86 1026.7
20260506115104 61 5 10.4 15.6 0.00 0.00 0.00 86 1026.7
20260506114102 61 0 11.3 17.4 0.00 0.00 0.00 85 1026.7
20260506113058 61 8 12.2 20.0 0.00 0.00 0.00 86 1026.7
20260506112054 61 359 10.4 18.2 0.00 0.00 0.00 86 1026.7
20260506111051 61 356 11.3 17.4 0.00 0.00 0.00 86 1026.8
20260506110046 60 335 8.7 13.9 0.00 0.00 0.00 86 1026.8
20260506105043 60 23 9.6 13.9 0.00 0.00 0.00 86 1026.8
20260506104039 60 5 8.7 13.9 0.00 0.00 0.00 86 1026.9
20260506103035 60 351 8.7 14.8 0.00 0.00 0.00 85 1026.8
20260506102034 60 12 8.7 12.2 0.00 0.00 0.00 85 1026.8
20260506101049 60 348 7.8 11.3 0.00 0.00 0.00 85 1026.8
20260506100025 60 2 8.7 13.0 0.00 0.00 0.00 84 1026.7
20260506095021 60 7 7.8 10.4 0.00 0.00 0.00 83 1026.8
20260506094018 60 356 7.0 10.4 0.00 0.00 0.00 83 1026.8
20260506093139 60 3 7.0 11.3 0.00 0.00 0.00 82 1026.8
20260506092111 60 20 7.0 11.3 0.00 0.00 0.00 82 1026.9
20260506091108 60 359 6.1 9.6 0.00 0.00 0.00 81 1026.8
20260506090106 60 358 5.2 9.6 0.00 0.00 0.00 80 1026.8
20260506085101 59 1 5.2 8.7 0.00 0.00 0.00 80 1026.9
20260506084119 59 27 5.2 7.0 0.00 0.00 0.00 80 1026.9
20260506083055 59 3 6.1 7.8 0.00 0.00 0.00 80 1027.1